Content
SEND FEEDBACK

Daily
Averages
Monthly
Summary
United States of America

PYGA BEACH, GUAM


Home > North America > United States > Guam
Elevation: 20 feet     Latitude: 13 17N     Longitude: 144 39E

WEATHER
 
SELECT A DAY
Number of Records: 352,517;   Date Range: 1/1/95 - 10/30/14
 
SHARE

PRINT THIS DATA

[ ← Previous Day ]
WEATHER ALMANAC - APRIL 2, 2013
[ Next Day → ]
[ °C ]   °F
Weather ElementAverageHighLow
Temperature79 °F82.4 °F (11:42 am)77 °F (1:07 am)
Dewpoint74.1 °F77.5 °F (11:55 am)68 °F (11:25 pm)
Humidity85.1 %94 % (8:16 am)73 % (8:55 pm)
Barometer29.89 in29.94 in (8:50 am)29.84 in (2:55 pm)
Wind Speed16.5 mph24.2 mph (9:29 am)
Wind Gust28.8 mph (9:29 am)
Weather ElementAverage
Visibility8.3 mi
Wind DirectionENE (76.4 °)

Weather ElementTotal
Precipitation0.47 in
Cooling Degree Days14.7 (Base 65)
Growing Degree Days29.7 (Base 50)
Averaged from 128 records on April 2, 2013
WEATHER CONDITIONS BREAKOUT
WIND DIRECTION BREAKOUT
WEATHER BY HOUR - APRIL 2, 2013
[ °C ]   °F
Local TimeTemperatureDewpointHumidityBarometerVisibilityWind DirectionWind SpeedGust SpeedPrecipitationEventsConditions
12:22 AM78.8 °F73.4 °F83 %29.91 in10.0 miEast (80°)17.3 mphScattered Clouds
12:55 AM77.7 °F73.2 °F86 %29.91 in10.0 miEast (80°)13.8 mphPartly Cloudy
1:07 AM77.0 °F73.4 °F89 %29.90 in10.0 miENE (70°)16.1 mphMostly Cloudy
1:11 AM77.0 °F73.4 °F89 %29.90 in10.0 miEast (80°)13.8 mphScattered Clouds
1:18 AM77.0 °F73.4 °F89 %29.90 in9.0 miENE (70°)16.1 mphMostly Cloudy
1:19 AM77.0 °F73.4 °F89 %29.90 in8.0 miENE (60°)16.1 mphRainLight Rain
1:30 AM77.0 °F73.4 °F89 %29.90 in10.0 miEast (80°)15.0 mphMostly Cloudy
1:55 AM77.2 °F73.8 °F89 %29.90 in10.0 miENE (60°)13.8 mph0.00 inMostly Cloudy
2:10 AM77.0 °F73.4 °F89 %29.89 in10.0 miENE (60°)12.7 mphMostly Cloudy
2:22 AM77.0 °F73.4 °F89 %29.89 in10.0 miENE (60°)16.1 mphScattered Clouds
2:23 AM77.0 °F73.4 °F89 %29.89 in10.0 miENE (60°)15.0 mphMostly Cloudy
2:38 AM77.0 °F73.4 °F89 %29.88 in10.0 miENE (70°)16.1 mphScattered Clouds
2:44 AM77.0 °F73.4 °F89 %29.88 in10.0 miENE (70°)16.1 mphMostly Cloudy
2:52 AM77.0 °F73.4 °F89 %29.88 in10.0 miENE (70°)16.1 mphMostly Cloudy
2:54 AM77.0 °F73.4 °F89 %29.88 in10.0 miENE (70°)15.0 mphMostly Cloudy
2:55 AM77.5 °F73.4 °F87 %29.88 in10.0 miENE (70°)13.8 mphMostly Cloudy
3:03 AM77.0 °F73.4 °F89 %29.88 in10.0 miENE (60°)15.0 mphMostly Cloudy
3:16 AM77.0 °F73.4 °F89 %29.88 in10.0 miENE (70°)15.0 mphMostly Cloudy
3:23 AM77.0 °F73.4 °F89 %29.88 in10.0 miENE (70°)16.1 mphMostly Cloudy
3:25 AM77.0 °F73.4 °F89 %29.88 in10.0 miENE (60°)16.1 mph21.9 mphMostly Cloudy
3:51 AM77.0 °F73.4 °F89 %29.88 in10.0 miENE (70°)12.7 mphMostly Cloudy
3:53 AM77.0 °F73.4 °F89 %29.88 in10.0 miEast (80°)12.7 mphMostly Cloudy
3:55 AM77.5 °F73.4 °F87 %29.88 in10.0 miEast (80°)13.8 mphMostly Cloudy
4:55 AM77.9 °F72.7 °F84 %29.89 in10.0 miEast (80°)16.1 mph23.0 mphMostly Cloudy
5:55 AM77.4 °F73.0 °F86 %29.91 in10.0 miENE (70°)18.4 mphScattered Clouds
6:55 AM78.4 °F73.0 °F83 %29.92 in10.0 miENE (60°)16.1 mph23.0 mphScattered Clouds
7:55 AM79.2 °F73.9 °F84 %29.93 in10.0 miENE (60°)15.0 mphMostly Cloudy
8:05 AM78.8 °F73.4 °F83 %29.93 in9.0 miEast (90°)17.3 mph23.0 mphMostly Cloudy
8:07 AM78.8 °F73.4 °F83 %29.93 in3.0 miEast (100°)12.7 mph23.0 mphRainLight Rain
8:08 AM77.0 °F73.4 °F89 %29.93 in2.0 miEast (100°)13.8 mph23.0 mphRainLight Rain
8:09 AM77.0 °F73.4 °F89 %29.93 in1.8 miEast (100°)12.7 mph23.0 mphRainLight Rain
8:16 AM77.0 °F75.2 °F94 %29.93 in2.0 miEast (90°)10.4 mphRainLight Rain
8:17 AM77.0 °F75.2 °F94 %29.93 in3.0 miEast (90°)10.4 mphRainLight Rain
8:20 AM77.0 °F75.2 °F94 %29.93 in8.0 miEast (90°)15.0 mphMostly Cloudy
8:30 AM77.0 °F75.2 °F94 %29.93 in9.0 miENE (60°)16.1 mphLight Drizzle
8:50 AM78.8 °F75.2 °F89 %29.94 in7.0 miENE (70°)18.4 mphOvercast
9:21 AM78.8 °F75.2 °F89 %29.93 in7.0 miENE (70°)16.1 mphRainLight Rain
9:22 AM78.8 °F77.0 °F94 %29.93 in7.0 miENE (70°)15.0 mphRainLight Rain
9:26 AM78.8 °F77.0 °F94 %29.93 in7.0 miENE (60°)16.1 mphRainLight Rain
9:29 AM78.8 °F75.2 °F89 %29.93 in2.5 miEast (80°)24.2 mph28.8 mphRainLight Rain
9:30 AM78.8 °F75.2 °F89 %29.93 in2.0 miEast (80°)23.0 mph28.8 mphRainLight Rain
9:31 AM78.8 °F75.2 °F89 %29.93 in1.5 miEast (80°)23.0 mph28.8 mphRainLight Rain
9:32 AM77.0 °F73.4 °F89 %29.94 in1.2 miEast (80°)19.6 mph28.8 mphRainHeavy Rain
9:33 AM77.0 °F73.4 °F89 %29.93 in1.2 miEast (80°)16.1 mph28.8 mphRainHeavy Rain
9:39 AM77.0 °F75.2 °F94 %29.93 in1.8 miENE (70°)16.1 mphRainLight Rain
9:40 AM77.0 °F75.2 °F94 %29.93 in2.0 miENE (70°)15.0 mphRainLight Rain
9:41 AM77.0 °F75.2 °F94 %29.93 in3.0 miENE (70°)13.8 mphRainLight Rain
9:44 AM78.8 °F77.0 °F94 %29.93 in9.0 miEast (80°)15.0 mphMostly Cloudy
9:45 AM78.8 °F77.0 °F94 %29.93 in10.0 miEast (80°)15.0 mphScattered Clouds
9:55 AM80.2 °F77.0 °F90 %29.93 in10.0 miEast (80°)17.3 mph0.00 inScattered Clouds
10:29 AM80.6 °F77.0 °F89 %29.93 in10.0 miENE (60°)18.4 mph24.2 mphMostly Cloudy
10:32 AM80.6 °F77.0 °F89 %29.93 in10.0 miENE (60°)15.0 mph24.2 mphMostly Cloudy
10:38 AM80.6 °F77.0 °F89 %29.92 in10.0 miENE (60°)15.0 mph24.2 mphMostly Cloudy
10:39 AM80.6 °F77.0 °F89 %29.92 in10.0 miENE (70°)15.0 mphMostly Cloudy
10:55 AM78.4 °F73.6 °F85 %29.92 in8.0 miEast (90°)16.1 mph27.6 mphMostly Cloudy
10:56 AM78.8 °F73.4 °F83 %29.92 in8.0 miEast (90°)13.8 mph26.5 mphMostly Cloudy
11:06 AM78.8 °F73.4 °F83 %29.92 in10.0 miEast (100°)11.5 mphMostly Cloudy
11:42 AM82.4 °F77.0 °F84 %29.90 in3.0 miEast (80°)15.0 mph23.0 mphRainLight Rain
11:52 AM80.6 °F77.0 °F89 %29.89 in8.0 miEast (80°)16.1 mphScattered Clouds
11:55 AM81.7 °F77.5 °F87 %29.89 in10.0 miEast (80°)15.0 mph0.00 inScattered Clouds
12:09 PM80.6 °F75.2 °F84 %29.89 in4.0 miENE (60°)18.4 mph24.2 mphHaze
12:10 PM80.6 °F75.2 °F84 %29.89 in3.0 miENE (70°)20.7 mphRainHeavy Rain
12:11 PM80.6 °F75.2 °F84 %29.89 in2.5 miEast (80°)20.7 mphRainHeavy Rain
12:15 PM78.8 °F75.2 °F89 %29.89 in2.0 miEast (80°)16.1 mphRainLight Rain
12:17 PM78.8 °F77.0 °F94 %29.89 in2.5 miEast (80°)16.1 mphRainLight Rain
12:18 PM78.8 °F77.0 °F94 %29.89 in3.0 miEast (80°)16.1 mphRainLight Rain
12:19 PM80.6 °F77.0 °F89 %29.89 in3.0 miEast (80°)16.1 mphRainLight Rain
12:24 PM80.6 °F77.0 °F89 %29.88 in10.0 miEast (80°)17.3 mphMostly Cloudy
12:29 PM80.6 °F77.0 °F89 %29.88 in10.0 miEast (90°)17.3 mphMostly Cloudy
12:42 PM78.8 °F75.2 °F89 %29.88 in8.0 miENE (70°)20.7 mph27.6 mphLight Drizzle
12:43 PM78.8 °F75.2 °F89 %29.88 in8.0 miENE (70°)19.6 mph27.6 mphLight Drizzle
12:45 PM78.8 °F75.2 °F89 %29.88 in7.0 miEast (80°)20.7 mph27.6 mphLight Drizzle
12:46 PM78.8 °F75.2 °F89 %29.88 in6.0 miEast (80°)18.4 mphRainLight Rain
12:50 PM78.8 °F75.2 °F89 %29.88 in6.0 miEast (80°)17.3 mphRainLight Rain
12:51 PM80.6 °F77.0 °F89 %29.88 in6.0 miEast (80°)17.3 mphRainLight Rain
12:55 PM80.6 °F76.8 °F88 %29.87 in8.0 miEast (80°)17.3 mph0.00 inRainLight Rain
12:57 PM80.6 °F77.0 °F89 %29.87 in10.0 miEast (80°)17.3 mphMostly Cloudy
1:03 PM80.6 °F77.0 °F89 %29.87 in10.0 miENE (70°)18.4 mph23.0 mphMostly Cloudy
1:07 PM80.6 °F77.0 °F89 %29.87 in10.0 miEast (90°)18.4 mph23.0 mphMostly Cloudy
1:10 PM82.4 °F77.0 °F84 %29.87 in10.0 miEast (80°)17.3 mph23.0 mphMostly Cloudy
1:13 PM82.4 °F75.2 °F79 %29.86 in10.0 miEast (90°)16.1 mphMostly Cloudy
1:20 PM82.4 °F75.2 °F79 %29.86 in10.0 miEast (80°)19.6 mphMostly Cloudy
1:27 PM80.6 °F75.2 °F84 %29.86 in10.0 miENE (70°)19.6 mphMostly Cloudy
1:34 PM82.4 °F77.0 °F84 %29.86 in10.0 miENE (70°)17.3 mph24.2 mphMostly Cloudy
1:55 PM82.4 °F76.5 °F82 %29.86 in10.0 miEast (80°)16.1 mph24.2 mph0.00 inMostly Cloudy
1:56 PM82.4 °F77.0 °F84 %29.85 in10.0 miEast (80°)18.4 mph25.3 mphScattered Clouds
2:12 PM80.6 °F75.2 °F84 %29.85 in10.0 miEast (90°)15.0 mphMostly Cloudy
2:19 PM80.6 °F75.2 °F84 %29.85 in5.0 miEast (90°)16.1 mphRainLight Rain
2:30 PM78.8 °F75.2 °F89 %29.85 in7.0 miEast (80°)18.4 mphMostly Cloudy
2:37 PM80.6 °F75.2 °F84 %29.85 in10.0 miEast (80°)16.1 mphScattered Clouds
2:55 PM81.0 °F75.0 °F82 %29.84 in10.0 miEast (80°)19.6 mph0.31 inMostly Cloudy
3:07 PM80.6 °F75.2 °F84 %29.84 in10.0 miENE (70°)19.6 mph26.5 mphMostly Cloudy
3:10 PM80.6 °F75.2 °F84 %29.84 in10.0 miENE (70°)20.7 mph26.5 mphMostly Cloudy
3:16 PM82.4 °F75.2 °F79 %29.84 in10.0 miENE (70°)20.7 mphMostly Cloudy
3:38 PM82.4 °F73.4 °F74 %29.84 in10.0 miENE (70°)19.6 mph26.5 mphMostly Cloudy
3:55 PM82.2 °F74.3 °F77 %29.84 in10.0 miEast (80°)19.6 mph24.2 mph0.16 inScattered Clouds
4:04 PM82.4 °F73.4 °F74 %29.84 in10.0 miEast (80°)16.1 mphMostly Cloudy
4:06 PM82.4 °F75.2 °F79 %29.84 in10.0 miENE (70°)18.4 mph24.2 mphScattered Clouds
4:08 PM80.6 °F75.2 °F84 %29.84 in10.0 miENE (70°)18.4 mph24.2 mphMostly Cloudy
4:18 PM80.6 °F73.4 °F79 %29.84 in10.0 miENE (70°)19.6 mphMostly Cloudy
4:27 PM80.6 °F73.4 °F79 %29.84 in10.0 miENE (70°)18.4 mphMostly Cloudy
4:31 PM80.6 °F73.4 °F79 %29.84 in10.0 miEast (80°)20.7 mph25.3 mphMostly Cloudy
4:32 PM80.6 °F73.4 °F79 %29.84 in10.0 miEast (80°)20.7 mph25.3 mphMostly Cloudy
4:34 PM80.6 °F73.4 °F79 %29.84 in10.0 miEast (80°)20.7 mph25.3 mphScattered Clouds
4:55 PM81.5 °F72.9 °F75 %29.84 in10.0 miEast (80°)19.6 mphClear
5:13 PM80.6 °F73.4 °F79 %29.84 in10.0 miEast (80°)12.7 mphMostly Cloudy
5:55 PM79.0 °F72.3 °F80 %29.85 in10.0 miENE (70°)16.1 mphMostly Cloudy
6:06 PM78.8 °F71.6 °F78 %29.85 in10.0 miENE (70°)16.1 mphMostly Cloudy
6:23 PM78.8 °F71.6 °F78 %29.86 in10.0 miEast (80°)16.1 mphMostly Cloudy
6:28 PM78.8 °F71.6 °F78 %29.86 in10.0 miEast (90°)13.8 mphMostly Cloudy
6:55 PM78.3 °F71.1 °F78 %29.87 in10.0 miENE (70°)15.0 mphPartly Cloudy
7:10 PM78.8 °F71.6 °F78 %29.87 in10.0 miEast (80°)16.1 mphMostly Cloudy
7:12 PM78.8 °F71.6 °F78 %29.87 in10.0 miEast (80°)13.8 mphScattered Clouds
7:55 PM78.1 °F70.3 °F77 %29.88 in10.0 miEast (80°)16.1 mphScattered Clouds
8:22 PM78.8 °F69.8 °F74 %29.89 in10.0 miEast (80°)16.1 mphMostly Cloudy
8:32 PM78.8 °F69.8 °F74 %29.89 in10.0 miENE (70°)17.3 mphMostly Cloudy
8:36 PM77.0 °F69.8 °F78 %29.89 in10.0 miENE (70°)17.3 mphMostly Cloudy
8:40 PM77.0 °F69.8 °F78 %29.89 in10.0 miEast (80°)12.7 mphScattered Clouds
8:45 PM77.0 °F69.8 °F78 %29.89 in10.0 miEast (80°)16.1 mphMostly Cloudy
8:46 PM77.0 °F69.8 °F78 %29.89 in10.0 miENE (70°)18.4 mphMostly Cloudy
8:55 PM77.9 °F68.5 °F73 %29.89 in10.0 miENE (70°)16.1 mphScattered Clouds
9:55 PM77.4 °F69.4 °F76 %29.90 in10.0 miEast (80°)13.8 mphScattered Clouds
10:55 PM77.5 °F70.0 °F77 %29.89 in10.0 miEast (90°)16.1 mphScattered Clouds
11:12 PM77.0 °F69.8 °F78 %29.89 in10.0 miEast (90°)15.0 mphMostly Cloudy
11:25 PM77.0 °F68.0 °F74 %29.89 in10.0 miEast (90°)15.0 mphScattered Clouds
11:31 PM77.0 °F69.8 °F78 %29.89 in10.0 miEast (80°)16.1 mphMostly Cloudy
11:53 PM77.0 °F69.8 °F78 %29.89 in10.0 miEast (80°)13.8 mphMostly Cloudy
11:55 PM77.4 °F69.6 °F77 %29.89 in10.0 miEast (80°)13.8 mphScattered Clouds
Hourly data recorded from PGUA, located miles away from Pyga Beach, Guam







STORIES FROM OUR PARTNERS